Location: B?dimalle
(17.1788°N, 80.5377°E)
Time: 23:51:38
(UTC+00:00)

Injun/Solrad 3 - Pass Details

Date: 24 February 2026
Orbit: 872 x 984 km, 66.8° (Epoch: 7 March)

Event Time Altitude Azimuth Distance (km) Brightness Sun altitude
Rises 14:17:47 0° 339° (NNW) 3,624 11.2 -23.3°
Reaches altitude 10° 14:20:19 10° 339° (NNW) 2,691 10.5 -23.9°
Maximum altitude 14:26:38 88° 69° (ENE) 979 7.9 -25.5°
Enters shadow 14:30:25 27° 158° (SSE) 1,794 9.2 -26.4°
